TimeCDT,TemperatureF,Dew PointF,Humidity,Sea Level PressureIn,VisibilityMPH,Wind Direction,Wind SpeedMPH,Gust SpeedMPH,PrecipitationIn,Events,Conditions,WindDirDegrees,DateUTC
12:53 AM,78.1,73.0,84,30.01,10.0,SSE,10.4,-,N/A,,Clear,160,2012-10-04 05:53:00
1:53 AM,77.0,73.0,88,30.01,10.0,SSE,10.4,-,N/A,,Clear,160,2012-10-04 06:53:00
2:53 AM,77.0,73.0,88,30.01,10.0,SSE,9.2,-,N/A,,Clear,150,2012-10-04 07:53:00
3:53 AM,77.0,73.9,90,30.00,10.0,SSE,10.4,-,N/A,,Clear,150,2012-10-04 08:53:00
4:53 AM,75.9,73.0,91,30.00,10.0,SSE,8.1,-,N/A,,Clear,150,2012-10-04 09:53:00
5:53 AM,75.0,72.0,90,30.01,10.0,South,6.9,-,N/A,,Clear,170,2012-10-04 10:53:00
6:53 AM,75.0,72.0,90,30.02,10.0,South,9.2,-,N/A,,Clear,170,2012-10-04 11:53:00
7:53 AM,77.0,73.0,88,30.03,10.0,SSE,8.1,-,N/A,,Clear,160,2012-10-04 12:53:00
8:53 AM,81.0,73.9,79,30.05,10.0,SSE,12.7,-,N/A,,Clear,160,2012-10-04 13:53:00
9:53 AM,86.0,73.9,67,30.06,10.0,South,13.8,23.0,N/A,,Clear,180,2012-10-04 14:53:00
10:53 AM,88.0,73.0,61,30.06,10.0,South,18.4,-,N/A,,Clear,180,2012-10-04 15:53:00
11:53 AM,90.0,71.1,54,30.07,10.0,South,18.4,26.5,N/A,,Clear,180,2012-10-04 16:53:00
12:53 PM,90.0,72.0,55,30.06,10.0,South,20.7,27.6,N/A,,Partly Cloudy,170,2012-10-04 17:53:00
1:53 PM,91.0,72.0,53,30.04,10.0,South,16.1,26.5,N/A,,Clear,170,2012-10-04 18:53:00
2:53 PM,90.0,71.1,54,30.04,10.0,SSE,19.6,29.9,N/A,,Partly Cloudy,150,2012-10-04 19:53:00
3:53 PM,89.1,71.1,55,30.04,10.0,SE,18.4,26.5,N/A,,Partly Cloudy,140,2012-10-04 20:53:00
4:53 PM,88.0,70.0,55,30.04,10.0,SSE,21.9,26.5,N/A,,Clear,150,2012-10-04 21:53:00
5:53 PM,86.0,70.0,59,30.04,10.0,SE,17.3,25.3,N/A,,Clear,140,2012-10-04 22:53:00
6:53 PM,82.9,70.0,65,30.05,10.0,SSE,18.4,-,N/A,,Clear,150,2012-10-04 23:53:00
7:53 PM,80.1,70.0,71,30.05,10.0,SE,12.7,-,N/A,,Clear,140,2012-10-05 00:53:00
8:53 PM,78.1,70.0,76,30.06,10.0,SSE,9.2,-,N/A,,Clear,150,2012-10-05 01:53:00
9:53 PM,75.0,69.1,82,30.08,10.0,SSE,5.8,-,N/A,,Clear,150,2012-10-05 02:53:00
10:53 PM,75.0,69.1,82,30.09,10.0,SE,4.6,-,N/A,,Clear,140,2012-10-05 03:53:00
11:53 PM,73.0,69.1,87,30.09,10.0,SE,3.5,-,N/A,,Clear,140,2012-10-05 04:53:00